Showing default

SATMAR, 64551

Orbit data source: Space-Track

SATMAR, 64551 is a payload satellite owned by Alen Space (ES) in SSO that was launched on Mon, 23 Jun 2025 UTC via an FALCON 9 launch vehicle from the Air Force Western Test Range (AFWTR). Payload-class satellites include a variety of spacecraft equipped with specific instruments for various scientific and technological missions. These include communications satellites like Starlink; space stations such as the ISS; scientific satellites like the Hubble; Earth observation satellites from companies like Planet Labs, Umbra, and HawkEye 360; GPS; miniature CubeSats for education and research; and military/defense satellites.

Loading next visibility...
Identifier
64551, 2025-135Z
Orbit
SSO
Country
Flag of ESES / SPN
Related business
Manufacturer
Alen Space
Mission
Operational Commercial Communications
Bus & Motor
CUBESAT 6U, Unknown motor
Mass
10 kg wet, 10 kg dry
Launch date (UTC)
2025-06-23 (11 months ago)
Launch vehicle
FALCON 9
Launch site
Air Force Western Test Range (AFWTR)
Object type
Payload
Rocket body
Debris
Shape & HBR
Box, 0.1 m
Radar Cross Section
0.080 m², Medium (>0.1 m² and < 1m²)

Expand to show TLE details & history
Last TLE update: 18 hours ago

TLE from 18 hours ago
0 SATMAR
1 64551U 25135Z   26132.80927227  .00005030  00000-0  20796-3 0  9993
2 64551  97.4572 248.7077 0002055  68.5495 291.5961 15.24433641 49538
Epoch: 2026-05-12T19:25Z
TLE epoch observation values (Epoch: 2026-05-12T19:25:21.124Z)
Latitude
-0.00004°
Longitude
86.79137°
Altitude
495.062 km
Speed
7.617 km/s
True Right ascension
16h 34m 49s
True Declination
0° 00' 00"
Sunlit
Object was in full shadow at epoch
Visualization orbit readout
Latitude
Unknown
Longitude
Unknown
Altitude
Unknown
Speed
Unknown
Apparent Right ascension
Unknown
Apparent Declination
Unknown
Sunlit
N/A
Visualization observer readout
Local Sidereal Time
22:08:18
Azimuth
Unknown
Elevation
Unknown
Doppler factor
Unknown
Orbital elements
Apogee altitude
490.86 km
Perigee altitude
488.037 km
Semi-major axis
6,867.586 km
Eccentricity
0.00021
Inclination
97.4572°
RAAN
248.7077°
Arg. of periapsis
68.5495°
True anomaly
291.5742°
Mean anomaly
291.5961°
Eccentric anomaly
291.58515°
Mean motion
3.81362 °/min
Orbital period
94.4 mins
BSTAR
0.00020796
Loading maneuver chart data...
Computing Atmospheric mass density...
Loading historical data...
Loading historical data...
Loading historical data...
Loading historical data...
Loading historical data...
Loading historical data...
Loading historical data...

Documentation

Showing up to 5 results
|